Weather in Tkibuli

Georgia     42°21′08″N   42°59′47″E
В апреле 2022 года жителям России запретили посещать сайт meteo.paraplan.net по решению Генеральной прокуратуры. Аудитория сайта уменьшилась в 10 раз. Владельцы сайта не видят смысла в поддержке погодного сервера в таких условиях. Сайт будет закрыт в октябре.
temp.,
°C
wind,
m/s
gust,
m/s
humid.,
%
clouds,
%
prec.,
mm/h
press.,
hPa
HPBL,
m
4 october, tue
tue401:00+15ssw0088100 0.4 101412
04:00+15ene3785100 0.7 1013159
07:00+17ene51277100 0.1 1012391
10:00+21e51167100 0.4 1013809
13:00+25ese6847100 0.0 10131391
16:00+27e564197 0.0 10121510
19:00+17wnw228946 0.0 101434
22:00+16sse119770 0.0 101835
5 october, wed
wed501:00+16nne0094100 0.0 101812
04:00+15ene1193100 0.0 101813
07:00+16ene1175100 0.0 101714
10:00+17sw2287100 0.1 1022326
13:00+19sw2179100 0.1 1022576
16:00+20w3472100 0.1 1020718
19:00+18wnw2289100 0.1 102140
22:00+17wsw2499100 0.4 1023231
6 october, thu
thu601:00+16w13100100 0.6 1022217
04:00+16sw22100100 1.2 1022150
07:00+16s1199100 0.3 102292
10:00+16sw119798 0.4 1022184
13:00+17sw229086 0.1 1022405
16:00+18sw238576 0.3 1021498
19:00+17wsw259494 0.3 1022300
22:00+16sw23100100 1.3 1023178
7 october, fri
fri701:00+15s1199100 0.5 102379
04:00+15e129526 0.6 102160
07:00+14ene22915 0.0 102019
10:00+21ese38660 0.0 1019903
13:00+26e79411 0.0 10171860
16:00+26e910400 0.0 10151340
19:00+20e7145552 0.0 1017612
22:00+20e916554 0.0 10171039
8 october, sat
sat801:00+20e11185679 0.0 10171032
04:00+19e11195821 0.0 10161023
07:00+19e121960100 0.0 10151042
10:00+22e1319500 0.0 10151158
13:00+25e1417390 0.0 10131153
16:00+25e1116390 0.0 10121028
19:00+21e91651100 0.0 1013823
22:00+20e81456100 0.1 1016734